Time_in_sec,Latitude,Longitude,Altitude,Nbsat_max_qualitysignal,Nbsat_locked,valid_data
1326900111.36949587,47.37643051,8.55028057,497.45932007,4,6,1
1326900223.72063541,47.37641144,8.55029297,496.86471558,3,7,1
1326900223.76951122,47.37641144,8.55029297,496.80252075,3,7,1
1326900223.82148695,47.37641144,8.55029297,496.74026489,3,7,1
1326900223.86855412,47.37641144,8.55029297,496.67797852,3,7,1
1326900223.92551446,47.37641144,8.55029297,496.56655884,3,7,1
1326900223.96870041,47.37641144,8.55029297,496.50408936,3,7,1
1326900224.02063107,47.37641144,8.55029297,496.44158936,3,7,1
1326900224.06951451,47.37641144,8.55029297,496.37902832,3,7,1
1326900224.12062240,47.37641144,8.55029202,496.31643677,3,7,1
1326900224.16959834,47.37641144,8.55029297,496.22406006,3,7,1
1326900224.22065377,47.37641144,8.55029297,496.16134644,3,7,1
1326900224.26938581,47.37641144,8.55029202,496.09857178,3,7,1
1326900224.32079744,47.37641144,8.55029202,496.03576660,3,7,1
1326900224.37259126,47.37641144,8.55029202,495.97290039,3,7,1
1326900224.42065191,47.37641144,8.55029297,495.89605713,3,7,1
1326900224.46862912,47.37641144,8.55029297,495.83312988,3,7,1
1326900224.52061820,47.37641144,8.55029297,495.77014160,3,7,1
1326900224.56951356,47.37641144,8.55029202,495.70715332,3,7,1
1326900224.62064266,47.37641144,8.55029202,495.64407349,3,7,1
1326900224.66859555,47.37641144,8.55029297,495.58578491,3,7,1
1326900224.72150493,47.37641144,8.55029202,495.52270508,3,7,1
1326900224.76951957,47.37641144,8.55029202,495.45959473,3,7,1
1326900224.82063174,47.37641525,8.55029202,495.39645386,3,7,1
1326900224.86850381,47.37641525,8.55029202,495.33325195,3,7,1
1326900224.92063785,47.37641525,8.55029297,495.30377197,3,7,1
1326900224.96956825,47.37641525,8.55029297,495.24072266,3,7,1
1326900225.02181029,47.37641525,8.55029297,495.17764282,3,7,1
1326900225.06856489,47.37641525,8.55029297,495.11450195,3,7,1
1326900225.12151051,47.37641525,8.55029297,495.05133057,3,7,1
1326900225.16853714,47.37641525,8.55029297,495.04156494,3,7,1
1326900225.22053289,47.37641525,8.55029297,494.97857666,3,7,1
1326900225.26853061,47.37641525,8.55029297,494.91555786,3,7,1
1326900225.32055116,47.37641525,8.55029297,494.85247803,3,7,1
1326900225.36848664,47.37641525,8.55029202,494.78936768,3,7,1
1326900225.42052650,47.37641525,8.55029202,494.80575562,3,7,1
1326900225.46909451,47.37641525,8.55029202,494.74291992,3,7,1
1326900225.52161813,47.37641525,8.55029202,494.68008423,3,7,1
1326900225.57092285,47.37641525,8.55029202,494.61721802,3,7,1
1326900225.62054968,47.37641525,8.55029202,494.55429077,3,8,1
1326900225.66851664,47.37641525,8.55029202,494.59167480,3,8,1
1326900225.72169185,47.37641525,8.55029202,494.52911377,3,8,1
1326900225.76949692,47.37641525,8.55029202,494.46652222,3,8,1
1326900225.82154202,47.37641525,8.55029202,494.40386963,3,8,1
1326900225.86861944,47.37641525,8.55029202,494.34118652,3,8,1
1326900225.92150474,47.37641525,8.55029297,494.40975952,3,8,1
1326900225.96861029,47.37641525,8.55029297,494.34753418,3,8,1
1326900226.02154040,47.37641525,8.55029297,494.28527832,3,8,1
1326900226.06908560,47.37641525,8.55029297,494.22299194,3,8,1
1326900226.12052393,47.37641525,8.55029297,494.16070557,3,8,1
1326900226.16950703,47.37641525,8.55029392,494.25802612,3,8,1
1326900226.22151399,47.37641525,8.55029392,494.19631958,3,8,1
1326900226.26861048,47.37641525,8.55029297,494.13458252,3,8,1
1326900226.32151699,47.37641525,8.55029297,494.07281494,3,8,1
1326900226.36863470,47.37641525,8.55029297,494.01098633,3,8,1
1326900226.42161584,47.37641525,8.55029392,494.13748169,3,8,1
1326900226.46955681,47.37641525,8.55029392,494.07638550,3,8,1
1326900226.52151585,47.37641525,8.55029392,494.01522827,3,8,1
1326900226.56895065,47.37641525,8.55029392,493.95401001,3,8,1
1326900226.62164354,47.37641525,8.55029392,493.89279175,3,8,1
1326900226.66863799,47.37641525,8.55029488,494.04492188,3,8,1
1326900226.72150326,47.37641525,8.55029488,493.98449707,3,8,1
1326900226.76952386,47.37641525,8.55029488,493.92401123,3,8,1
1326900226.82163453,47.37641525,8.55029488,493.86346436,3,8,1
1326900226.86882544,47.37641525,8.55029488,493.80288696,3,8,1
1326900226.92205477,47.37641525,8.55029583,493.98602295,3,8,1
1326900226.96950006,47.37641525,8.55029583,493.92639160,3,8,1
1326900227.02052426,47.37641525,8.55029583,493.86676025,3,8,1
1326900227.06867981,47.37641525,8.55029583,493.80706787,3,8,1
1326900227.12150955,47.37641525,8.55029583,493.74737549,3,8,1
1326900227.16964173,47.37641525,8.55029678,493.95831299,3,8,1
1326900227.22068620,47.37641525,8.55029678,493.89968872,3,8,1
1326900227.26156855,47.37641525,8.55029678,493.84106445,3,8,1
1326900227.32066655,47.37641525,8.55029678,493.79409790,3,8,1
1326900227.36954021,47.37641525,8.55029583,493.72363281,3,8,1
1326900227.42106318,47.37641525,8.55029774,493.95260620,3,8,1
1326900227.46857524,47.37641525,8.55029774,493.89495850,3,8,1
1326900227.52150631,47.37641525,8.55029678,493.83731079,3,8,1
1326900227.57183933,47.37641525,8.55029678,493.77960205,3,8,1
1326900227.62062931,47.37641525,8.55029678,493.72186279,4,8,1
1326900227.66953397,47.37641525,8.55029869,493.97479248,4,8,1
1326900227.72053242,47.37641525,8.55029869,493.91827393,4,8,1
1326900227.76950479,47.37641525,8.55029869,493.86172485,4,8,1
1326900227.82052732,47.37641525,8.55029869,493.80514526,4,8,1
1326900227.86853528,47.37641525,8.55029869,493.74850464,4,8,1
1326900227.92151022,47.37641144,8.55030060,494.00976562,4,8,1
1326900227.96855569,47.37641144,8.55030060,493.95434570,4,8,1
1326900228.02050972,47.37641144,8.55030060,493.89886475,4,8,1
1326900228.06903958,47.37641144,8.55030060,493.84335327,4,8,1
1326900228.12138629,47.37641144,8.55030060,493.78778076,4,8,1
1326900228.16939449,47.37641144,8.55030251,494.06912231,4,8,1
1326900228.22151542,47.37641144,8.55030251,494.01483154,4,8,1
1326900228.26854634,47.37641144,8.55030251,493.96051025,4,8,1
1326900228.32066202,47.37641144,8.55030251,493.90612793,4,8,1
1326900228.36055827,47.37641144,8.55030251,493.85171509,4,8,1
1326900228.41889477,47.37641144,8.55030346,494.14010620,4,8,1
1326900228.46854663,47.37641144,8.55030251,494.10418701,4,8,1
1326900228.52161264,47.37641144,8.55030251,494.05111694,4,8,1
1326900228.56950808,47.37641144,8.55030251,493.99801636,4,8,1
1326900228.62093329,47.37641144,8.55030251,493.94485474,4,8,1
1326900228.66964555,47.37640762,8.55030441,494.26675415,4,8,1
1326900228.72153568,47.37640762,8.55030441,494.21505737,4,8,1
1326900228.76864743,47.37640762,8.55030441,494.16336060,4,8,1
1326900228.82154226,47.37640762,8.55030441,494.11163330,4,8,1
1326900228.87161016,47.37640762,8.55030441,494.05984497,4,8,1
1326900228.92119837,47.37640762,8.55030537,494.36233521,4,8,1
1326900228.96952629,47.37640762,8.55030537,494.34335327,4,8,1
1326900229.02134490,47.37640762,8.55030537,494.29302979,4,8,1
1326900229.06866837,47.37640762,8.55030537,494.24264526,4,8,1
1326900229.12175465,47.37640762,8.55030537,494.19226074,4,8,1
1326900229.16924381,47.37640762,8.55030632,494.53045654,4,8,1
1326900229.22063494,47.37640762,8.55030632,494.48156738,4,8,1
1326900229.26851225,47.37640762,8.55030632,494.43261719,4,8,1
1326900229.32054448,47.37640762,8.55030632,494.38366699,4,8,1
1326900229.36949801,47.37640762,8.55030632,494.33462524,4,8,1
1326900229.42153358,47.37640381,8.55030727,494.65234375,4,8,1
1326900229.46864915,47.37640381,8.55030727,494.62640381,4,8,1
1326900229.52741051,47.37640381,8.55030727,494.57882690,4,8,1
1326900229.56857681,47.37640381,8.55030727,494.53121948,4,8,1
1326900229.62053084,47.37640381,8.55030727,494.48355103,4,8,1
1326900229.66855335,47.37640381,8.55030823,494.82818604,4,8,1
1326900229.72057915,47.37640381,8.55030823,494.78201294,4,8,1
1326900229.76950908,47.37640381,8.55030823,494.73577881,4,8,1
1326900229.82088137,47.37640381,8.55030823,494.68951416,4,8,1
1326900229.86857653,47.37640381,8.55030823,494.64321899,4,8,1
1326900229.92554426,47.37640381,8.55030918,495.00048828,4,8,1
1326900229.96964812,47.37640381,8.55030918,494.95578003,4,8,1
1326900230.02154946,47.37640381,8.55030918,494.91098022,4,8,1
1326900230.06955624,47.37640381,8.55030918,494.86618042,4,8,1
1326900230.12150669,47.37640381,8.55030918,494.82128906,4,8,1
1326900230.16958451,47.37639999,8.55031013,495.17868042,4,8,1
1326900230.22048807,47.37639999,8.55031013,495.13534546,4,8,1
1326900230.26954532,47.37639999,8.55031013,495.09194946,4,8,1
1326900230.32150245,47.37639999,8.55031013,495.04852295,4,8,1
1326900230.36950493,47.37639999,8.55031013,495.00506592,4,8,1
1326900230.42101526,47.37639999,8.55031109,495.34436035,4,8,1
1326900230.46956873,47.37639999,8.55031109,495.32653809,4,8,1
1326900230.52051020,47.37639999,8.55031109,495.28460693,4,8,1
1326900230.56949902,47.37639999,8.55031109,495.24261475,4,8,1
1326900230.62155795,47.37639618,8.55031109,495.20062256,4,8,1
1326900230.66863990,47.37639618,8.55031204,495.56835938,4,8,1
1326900230.72151089,47.37639618,8.55031204,495.52792358,4,8,1
1326900230.76855779,47.37639618,8.55031204,495.48742676,4,8,1
1326900230.82055497,47.37639618,8.55031204,495.44689941,4,8,1
1326900230.86918330,47.37639618,8.55031204,495.40634155,4,8,1
1326900230.92054605,47.37639618,8.55031300,495.77072144,4,8,1
1326900230.96950722,47.37639618,8.55031300,495.73168945,4,8,1
1326900231.02149653,47.37639618,8.55031300,495.69259644,4,8,1
1326900231.06856251,47.37639618,8.55031300,495.65350342,4,8,1
1326900231.12159634,47.37639618,8.55031300,495.61434937,4,8,1
1326900231.16855192,47.37639236,8.55031300,495.98034668,4,8,1
1326900231.22055268,47.37639236,8.55031300,495.94274902,4,8,1
1326900231.26957989,47.37639236,8.55031300,495.90509033,4,8,1
1326900231.32155013,47.37639236,8.55031300,495.86737061,4,8,1
1326900231.36949754,47.37639236,8.55031300,495.82965088,4,8,1
1326900231.42107511,47.37639236,8.55031395,496.19586182,4,8,1
1326900231.46856117,47.37639236,8.55031395,496.15966797,4,8,1
1326900231.52150512,47.37639236,8.55031395,496.12341309,4,8,1
1326900231.56863713,47.37639236,8.55031395,496.08712769,4,8,1
1326900231.62064123,47.37639236,8.55031395,496.05078125,4,8,1
1326900231.66951156,47.37639236,8.55031490,496.42077637,4,8,1
1326900231.72123671,47.37639236,8.55031490,496.38598633,4,8,1
1326900231.76949644,47.37639236,8.55031490,496.35116577,4,8,1
1326900231.82052851,47.37638855,8.55031490,496.31631470,4,8,1
1326900231.86865878,47.37638855,8.55031490,496.28143311,4,8,1
1326900231.92151022,47.37638855,8.55031490,496.64865112,4,8,1
1326900231.96952176,47.37638855,8.55031490,496.61529541,4,8,1
1326900232.02103353,47.37638855,8.55031490,496.58187866,4,8,1
1326900232.06900835,47.37638855,8.55031490,496.54846191,4,8,1
1326900232.12266040,47.37638855,8.55031490,496.51498413,4,8,1
1326900232.16951156,47.37638855,8.55031586,496.88400269,4,8,1
1326900232.22062230,47.37638855,8.55031586,496.85205078,4,8,1
1326900232.26861906,47.37638855,8.55031586,496.82003784,4,8,1
1326900232.31846476,47.37638855,8.55031586,496.78802490,4,8,1
1326900232.36956644,47.37638855,8.55031586,496.75595093,4,8,1
1326900232.42120767,47.37638855,8.55031681,497.10272217,4,8,1
1326900232.46956158,47.37638855,8.55031586,497.09350586,4,8,1
1326900232.52099466,47.37638855,8.55031586,497.06292725,4,8,1
1326900232.56948781,47.37638855,8.55031586,497.03228760,4,8,1
1326900232.62061739,47.37638855,8.55031586,497.00161743,4,8,1
1326900232.66965127,47.37638474,8.55031681,497.36721802,4,8,1
1326900232.72085094,47.37638474,8.55031681,497.33807373,4,8,1
1326900232.76862502,47.37638474,8.55031681,497.30886841,4,8,1
1326900232.82161379,47.37638474,8.55031681,497.27960205,4,8,1
1326900232.86876321,47.37638474,8.55031681,497.25033569,4,8,1
1326900232.92074156,47.37638474,8.55031776,497.61694336,4,8,1
1326900232.96949530,47.37638474,8.55031776,497.58914185,4,8,1
1326900233.02152443,47.37638474,8.55031776,497.56127930,4,8,1
1326900233.06964803,47.37638474,8.55031776,497.53341675,4,8,1
1326900233.12148595,47.37638474,8.55031776,497.50549316,4,8,1
1326900233.16863298,47.37638474,8.55031776,497.87557983,4,8,1
1326900233.22067022,47.37638474,8.55031776,497.84918213,4,8,1
1326900233.26858616,47.37638474,8.55031776,497.82272339,4,8,1
1326900233.32065749,47.37638474,8.55031776,497.79626465,4,8,1
1326900233.36951399,47.37638474,8.55031776,497.76974487,4,8,1
1326900233.42063451,47.37638474,8.55031872,498.11593628,4,8,1
1326900233.47150946,47.37638474,8.55031872,498.10836792,4,8,1
1326900233.52149630,47.37638474,8.55031872,498.08325195,4,8,1
1326900233.56963754,47.37638474,8.55031872,498.05807495,4,8,1
1326900233.62058830,47.37638092,8.55031872,498.03286743,6,8,1
1326900233.67253232,47.37638092,8.55031872,498.39730835,6,8,1
1326900233.72056365,47.37638092,8.55031872,498.37353516,6,8,1
1326900233.76948380,47.37638092,8.55031872,498.34970093,6,8,1
1326900233.82057977,47.37638092,8.55031872,498.32583618,6,8,1
1326900233.87190914,47.37638092,8.55031872,498.30194092,6,8,1
1326900233.90950346,47.37638092,8.55031872,498.66525269,6,8,1
1326900233.96070266,47.37638092,8.55031872,498.64727783,6,8,1
1326900234.01001740,47.37638092,8.55031872,498.62478638,6,8,1
1326900234.06152368,47.37638092,8.55031872,498.60229492,6,8,1
1326900234.10939217,47.37638092,8.55031872,498.57974243,6,8,1
1326900234.16152310,47.37638092,8.55031872,498.92800903,6,8,1
1326900234.20953727,47.37638092,8.55031872,498.92456055,6,8,1
1326900234.26053143,47.37638092,8.55031872,498.90344238,6,8,1
1326900234.30968785,47.37638092,8.55031872,498.88226318,6,8,1
1326900234.36056423,47.37638092,8.55031872,498.86105347,6,8,1
1326900234.40953970,47.37638092,8.55031872,498.83978271,6,8,1
1326900234.46150255,47.37637711,8.55031776,499.21109009,6,8,1
1326900234.50957203,47.37637711,8.55031776,499.19131470,6,8,1
1326900234.56259251,47.37637711,8.55031776,499.17150879,6,8,1
1326900234.60917377,47.37637711,8.55031776,499.15164185,6,8,1
1326900234.66244459,47.37637711,8.55031776,499.49822998,6,8,1
1326900234.70949793,47.37637711,8.55031776,499.49716187,6,8,1
1326900234.76050639,47.37637711,8.55031776,499.47869873,6,8,1
1326900234.81353736,47.37637711,8.55031776,499.46017456,6,8,1
1326900234.85928607,47.37637711,8.55031776,499.44165039,6,8,1
1326900234.90970421,47.37637711,8.55031776,499.78717041,6,8,1
1326900234.96164370,47.37637711,8.55031776,499.78311157,6,8,1
1326900235.00948834,47.37637711,8.55031681,499.76593018,6,8,1
1326900235.06050801,47.37637711,8.55031681,499.74868774,6,8,1
1326900235.11346817,47.37637711,8.55031681,499.73141479,6,8,1
1326900235.16103268,47.37637711,8.55031681,500.07836914,6,8,1
1326900235.21301508,47.37637711,8.55031776,500.07437134,6,8,1
1326900235.26951456,47.37637711,8.55031776,500.05847168,6,8,1
1326900235.31126356,47.37637711,8.55031776,500.03930664,6,8,1
1326900235.36149454,47.37637711,8.55031776,500.02648926,6,8,1
1326900235.42025948,47.37637711,8.55031776,500.01043701,6,8,1
1326900235.46047902,47.37637711,8.55031872,500.36471558,6,8,1
1326900235.51501846,47.37637329,8.55031872,500.35296631,6,8,1
1326900235.56211734,47.37637329,8.55031872,500.33825684,6,8,1
1326900235.61411119,47.37637329,8.55031872,500.32348633,6,8,1
1326900235.66151786,47.37637329,8.55031872,500.66366577,6,8,1
1326900235.71248913,47.37637329,8.55031776,500.65939331,6,8,1
1326900235.76150203,47.37637329,8.55031776,500.64593506,6,8,1
1326900235.80977654,47.37637329,8.55031776,500.63241577,6,8,1
1326900235.86068225,47.37637329,8.55031776,500.61889648,6,8,1
1326900235.91273427,47.37637329,8.55031776,500.96755981,6,8,1
1326900235.96181631,47.37637329,8.55031776,500.97567749,6,8,1
1326900236.01355529,47.37637329,8.55031776,500.96353149,6,8,1
1326900236.06348252,47.37637329,8.55031776,500.95135498,6,8,1
1326900236.11255932,47.37637329,8.55031776,500.93914795,6,8,1
1326900236.16150975,47.37637329,8.55031681,501.29602051,6,8,1
1326900236.21264386,47.37637329,8.55031776,501.29779053,6,8,1
1326900236.26071978,47.37637329,8.55031776,501.28692627,6,8,1
1326900236.30966973,47.37637329,8.55031776,501.27603149,6,8,1
1326900236.36053801,47.37637329,8.55031776,501.26507568,6,8,1
1326900236.41254759,47.37637329,8.55031776,501.25411987,6,8,1
1326900236.46149993,47.37636948,8.55031872,501.63632202,6,8,1
1326900236.51260233,47.37636948,8.55031872,501.62680054,6,8,1
1326900236.56153035,47.37636948,8.55031872,501.61727905,6,8,1
1326900236.60951161,47.37636948,8.55031872,501.60769653,6,8,1
1326900236.66093206,47.37636948,8.55031872,501.97500610,6,8,1
1326900236.70947695,47.37636948,8.55031872,501.98541260,6,8,1
1326900236.76118422,47.37636948,8.55031872,501.97729492,6,8,1
1326900236.81353283,47.37636948,8.55031872,501.96914673,6,8,1
1326900236.86409664,47.37636948,8.55031872,501.96093750,6,8,1
1326900236.90932679,47.37636948,8.55031872,502.32962036,6,8,1
1326900236.96155047,47.37636948,8.55031967,502.33792114,6,8,1
1326900237.00933766,47.37636948,8.55031967,502.33114624,6,8,1
1326900237.06149483,47.37636566,8.55031967,502.32434082,6,8,1
1326900237.10947657,47.37636566,8.55031967,502.31750488,6,8,1
1326900237.16050911,47.37636566,8.55031967,502.68377686,6,8,1
1326900237.20953751,47.37636566,8.55031967,502.69354248,6,8,1
1326900237.26371908,47.37636566,8.55031967,502.68807983,6,8,1
1326900237.31249428,47.37636566,8.55031967,502.68258667,6,8,1
1326900237.36152792,47.37636566,8.55031967,502.67706299,6,8,1
1326900237.40953636,47.37636566,8.55031967,502.67150879,6,8,1
1326900237.46056676,47.37636566,8.55031872,503.05609131,6,8,1
1326900237.50950098,47.37636566,8.55031872,503.05197144,6,8,1
1326900237.56055307,47.37636566,8.55031872,503.04782104,6,8,1
1326900237.60953474,47.37636185,8.55031872,503.04364014,6,8,1
1326900237.66154814,47.37636185,8.55031872,503.41439819,5,8,1
1326900237.71352458,47.37636185,8.55031872,503.42062378,5,8,1
1326900237.76061749,47.37636185,8.55031872,503.41778564,5,8,1
1326900237.80954313,47.37636185,8.55031872,503.41491699,5,8,1
1326900237.86066842,47.37636185,8.55031872,503.41201782,5,8,1
1326900237.90949845,47.37636185,8.55031872,503.78506470,5,8,1
1326900237.96063733,47.37636185,8.55031872,503.79840088,5,8,1
1326900238.01353693,47.37636185,8.55031872,503.79690552,5,8,1
1326900238.06097913,47.37636185,8.55031872,503.79537964,5,8,1
1326900238.11262321,47.37636185,8.55031872,503.79379272,5,8,1
1326900238.16153431,47.37635803,8.55031872,504.16775513,5,8,1
1326900238.21304870,47.37635803,8.55031872,504.18075562,5,8,1
1326900238.26164818,47.37635803,8.55031872,504.18057251,5,8,1
1326900238.30966640,47.37635803,8.55031872,504.18035889,5,8,1
1326900238.36065722,47.37635803,8.55031872,504.18008423,5,8,1
1326900238.41364121,47.37635803,8.55031872,504.17980957,5,8,1
1326900238.46951032,47.37635803,8.55031872,504.56869507,5,8,1
1326900238.51358533,47.37635803,8.55031872,504.57003784,5,8,1
1326900238.56057882,47.37635803,8.55031872,504.57089233,5,8,1
1326900238.61279631,47.37635803,8.55031872,504.57192993,5,8,1
1326900238.66054082,47.37635803,8.55031872,504.94683838,5,8,1
1326900238.70980406,47.37635803,8.55031967,504.96072388,5,8,1
1326900238.76064491,47.37635803,8.55031967,504.96310425,5,8,1
1326900238.81257963,47.37635803,8.55031967,504.96542358,5,8,1
1326900238.87278438,47.37635803,8.55031967,504.96774292,5,8,1
1326900238.91365504,47.37635803,8.55031967,504.97048950,5,8,1
1326900238.96052694,47.37635422,8.55032063,505.36917114,5,8,1
1326900239.01264811,47.37635422,8.55032063,505.37295532,5,8,1
1326900239.06065536,47.37635422,8.55032063,505.37670898,5,8,1
1326900239.10960984,47.37635422,8.55032063,505.38040161,5,8,1
1326900239.16065764,47.37635422,8.55032063,505.75326538,5,8,1
1326900239.21369839,47.37635422,8.55032158,505.77105713,5,8,1
1326900239.26157355,47.37635422,8.55032063,505.77615356,5,8,1
1326900239.31253052,47.37635422,8.55032063,505.78118896,5,8,1
1326900239.36154461,47.37635040,8.55032063,505.78616333,5,8,1
1326900239.42154169,47.37635040,8.55032063,505.79113770,5,8,1
1326900239.46061611,47.37635040,8.55032063,506.18078613,5,8,1
1326900239.50949907,47.37635040,8.55032063,506.18594360,5,8,1
1326900239.56055593,47.37635040,8.55032063,506.19238281,5,8,1
1326900239.60952044,47.37635040,8.55032063,506.19873047,5,8,1
1326900239.66178441,47.37635040,8.55032063,506.56286621,5,8,1
1326900239.70958257,47.37635040,8.55032158,506.57565308,5,8,1
1326900239.76052380,47.37634659,8.55032158,506.58328247,5,8,1
1326900239.81352496,47.37634659,8.55032158,506.59085083,5,8,1
1326900239.86059427,47.37634659,8.55032158,506.59841919,5,8,1
1326900239.90954232,47.37634659,8.55032158,506.95599365,5,8,1
1326900239.96056581,47.37634659,8.55032253,506.97418213,5,8,1
1326900240.00960183,47.37634659,8.55032158,506.98300171,5,8,1
1326900240.06939173,47.37634659,8.55032158,506.99179077,5,8,1
1326900240.10938573,47.37634659,8.55032158,507.00228882,5,8,1
1326900240.16152930,47.37634659,8.55032158,507.00921631,5,8,1
1326900240.21249938,47.37634277,8.55032253,507.36834717,5,8,1
1326900240.26051641,47.37634277,8.55032253,507.37832642,5,8,1
1326900240.30948520,47.37634277,8.55032253,507.38827515,5,8,1
1326900240.36152339,47.37634277,8.55032253,507.39816284,5,8,1
1326900240.40951991,47.37634277,8.55032253,507.40798950,5,8,1
1326900240.46155310,47.37634277,8.55032253,507.76531982,5,8,1
1326900240.51253724,47.37634277,8.55032158,507.77645874,5,8,1
1326900240.56150723,47.37634277,8.55032158,507.78753662,5,8,1
1326900240.60922551,47.37633896,8.55032158,507.79855347,5,8,1
1326900240.66951299,47.37633896,8.55032158,508.13574219,5,8,1
1326900240.70953822,47.37633896,8.55032158,508.15454102,5,8,1
1326900240.76054072,47.37633896,8.55032158,508.16427612,5,8,1
1326900240.81362295,47.37633896,8.55032158,508.17642212,5,8,1
1326900240.86951399,47.37633896,8.55032158,508.18850708,5,8,1
1326900240.90967417,47.37633896,8.55032158,508.20297241,5,8,1
1326900240.96552038,47.37633896,8.55032063,508.54476929,5,8,1
1326900241.00958729,47.37633896,8.55032063,508.55807495,5,8,1
1326900241.06063128,47.37633896,8.55032063,508.57131958,5,8,1
1326900241.10953808,47.37633896,8.55032063,508.58453369,5,8,1
1326900241.16052818,47.37633896,8.55032063,508.90588379,5,8,1
1326900241.21358228,47.37633896,8.55032063,508.93499756,5,8,1
1326900241.26150393,47.37633896,8.55032063,508.94940186,5,8,1
1326900241.31365538,47.37633896,8.55032063,508.96374512,5,8,1
1326900241.36055017,47.37633514,8.55032063,508.97802734,5,8,1
1326900241.40955997,47.37633514,8.55032063,508.99234009,5,8,1
1326900241.46062279,47.37633896,8.55032253,509.30895996,5,8,1
